DECAYED

PEGASUS DEB, 26740 (Decayed)

Orbit data source: Space-Track

PEGASUS DEB, 26740 was space debris in LEO originally from a launch on Thu, 19 May 1994 UTC launched from the Air Force Western Test Range (AFWTR). Debris objects in space refer to the collection of defunct objects orbiting the Earth. Examples of debris include non-operational satellites, rocket bodies, and fragments generated from explosions, collisions, or faulty payload assembly.

Loading next visibility...
Identifier
26740, 1994-029AEH
Orbit
Decayed
Country
Flag of USUS
Related business
Manufacturer
Unknown
Mission
Decayed spacecraft
Bus & Motor
Unknown
Mass
Unknown
Launch date (UTC)
1994-05-19 (32 years ago)
Launch vehicle
Unknown
Launch site
Air Force Western Test Range (AFWTR)
Object type
Payload
Rocket body
Debris
Shape & HBR
Unknown shape, 0.1 m
Radar Cross Section
Small (<0.1 m²)

Expand to show TLE details & history
Last TLE update: 1 year ago

TLE from 1 year ago
0 PEGASUS DEB
1 26740U 94029AEH 25078.92691033  .02534316  67562-2  39163-2 0  9994
2 26740  81.8310  50.5985 0002744 141.9311 218.2162 16.05962723427120
Epoch: 2025-03-19T22:14Z
TLE epoch observation values (Epoch: 2025-03-19T22:14:45.052Z)
Latitude
-0.00006°
Longitude
-100.79725°
Altitude
262.555 km
Speed
7.749 km/s
True Right ascension
03h 22m 23s
True Declination
0° 00' 00"
Sunlit
Object was in daylight at epoch
Visualization orbit readout
Latitude
Unknown
Longitude
Unknown
Altitude
Unknown
Speed
Unknown
Apparent Right ascension
Unknown
Apparent Declination
Unknown
Sunlit
N/A
Visualization observer readout
Local Sidereal Time
15:37:42
Azimuth
Unknown
Elevation
Unknown
Doppler factor
Unknown
Orbital elements
Apogee altitude
256.65 km
Perigee altitude
253.01 km
Semi-major axis
6,632.967 km
Eccentricity
0.00027
Inclination
81.831°
RAAN
50.5985°
Arg. of periapsis
141.9311°
True anomaly
218.19675°
Mean anomaly
218.2162°
Eccentric anomaly
218.20648°
Mean motion
4.01774 °/min
Orbital period
89.6 mins
BSTAR
0.0039163
Loading maneuver chart data...
Computing Atmospheric mass density...

Documentation

Showing up to 5 results
|